EDT,Max TemperatureF,Mean TemperatureF,Min TemperatureF,Max Dew PointF,MeanDew PointF,Min DewpointF,Max Humidity, Mean Humidity, Min Humidity, Max Sea Level PressureIn, Mean Sea Level PressureIn, Min Sea Level PressureIn, Max VisibilityMiles, Mean VisibilityMiles, Min VisibilityMiles, Max Wind SpeedMPH, Mean Wind SpeedMPH, Max Gust SpeedMPH,PrecipitationIn, CloudCover, Events, WindDirDegrees
2014-4-1,58,43,27,33,28,24,85,60,35,30.18,30.07,29.93,10,10,10,14,5,18,0.00,1,,100
2014-4-2,67,51,35,35,30,23,85,54,22,30.12,30.05,29.96,10,10,10,15,4,19,0.00,2,,252
2014-4-3,61,52,42,43,29,13,92,54,15,30.19,30.09,29.97,10,10,6,10,4,13,0.17,5,Rain,103
2014-4-4,47,45,43,42,41,39,96,86,76,30.00,29.84,29.70,10,6,2,23,12,31,0.40,8,Rain,92
2014-4-5,47,40,32,39,30,21,89,65,41,30.17,29.92,29.73,10,10,10,23,11,32,T,6,Rain,283
2014-4-6,59,43,27,26,21,14,78,49,19,30.25,30.19,30.11,10,10,10,12,4,16,0.00,0,,273
2014-4-7,48,40,32,44,36,22,93,65,37,30.16,29.89,29.54,10,4,2,18,7,26,0.49,7,Rain-Thunderstorm,99
2014-4-8,56,45,34,47,41,33,93,70,46,29.70,29.51,29.41,10,8,4,26,9,35,0.04,7,Rain,150
2014-4-9,61,45,29,34,26,20,92,58,23,30.04,29.82,29.70,10,10,10,18,6,30,0.00,1,,326
2014-4-10,69,49,28,32,28,23,78,51,23,30.17,30.02,29.89,10,10,10,28,8,38,0.00,1,,161
2014-4-11,63,54,45,54,44,32,93,65,36,30.07,30.01,29.87,10,7,2,12,4,16,0.23,7,Rain,285
2014-4-12,70,56,41,45,40,32,92,62,31,30.27,30.16,30.08,10,10,6,21,7,26,0.00,5,,283
2014-4-13,82,70,57,52,46,32,67,50,33,30.08,29.97,29.86,10,10,10,26,12,37,T,1,Rain,133
2014-4-14,77,69,60,59,54,50,90,66,41,29.90,29.79,29.70,10,10,9,33,12,47,T,2,Rain,145
2014-4-15,68,49,30,59,43,14,90,70,49,30.08,29.71,29.47,10,8,2,43,13,54,0.59,8,Rain-Snow,276
2014-4-16,46,35,24,17,12,8,50,38,25,30.57,30.40,30.09,10,10,10,23,9,34,0.00,1,,344
2014-4-17,55,40,25,28,22,19,75,52,28,30.66,30.58,30.51,10,10,10,18,6,28,0.00,0,,116
2014-4-18,54,44,34,33,29,26,75,58,41,30.57,30.39,30.24,10,10,10,14,6,19,0.00,1,,97
2014-4-19,63,48,33,35,28,17,89,55,21,30.40,30.32,30.26,10,10,9,15,6,22,0.00,0,,1
2014-4-20,66,49,32,32,30,27,76,52,28,30.46,30.37,30.26,10,10,10,21,6,29,0.00,0,,183
2014-4-21,72,55,37,36,31,27,70,47,24,30.25,30.05,29.81,10,10,10,20,6,29,0.00,1,,118
2014-4-22,63,55,47,50,39,31,72,54,36,29.80,29.64,29.53,10,10,10,24,7,31,T,3,Rain,144
2014-4-23,54,47,39,32,30,22,62,53,43,29.98,29.79,29.65,10,10,10,24,14,34,0.00,6,,300
2014-4-24,62,49,36,23,16,12,44,30,15,30.10,30.04,29.99,10,10,10,21,9,27,0.00,0,,322
2014-4-25,65,51,36,43,31,18,86,53,20,30.04,29.86,29.73,10,10,6,20,8,30,0.10,4,Rain,105
2014-4-26,71,57,43,44,37,25,93,58,23,29.96,29.78,29.66,10,9,3,28,12,39,T,4,Rain,295
2014-4-27,60,50,40,33,31,28,67,50,32,30.17,30.06,29.96,10,10,10,16,8,22,0.00,3,,327
2014-4-28,63,48,32,41,32,28,89,61,32,30.17,30.08,29.98,10,10,10,20,5,25,T,2,Rain,171
2014-4-29,52,48,43,44,41,37,89,74,59,30.28,30.16,30.04,10,8,2,25,14,34,0.25,8,Rain,104
2014-4-30,54,49,43,52,46,40,93,87,80,30.26,30.05,29.83,10,5,2,20,12,27,0.60,8,Rain,110